Location: Baumgarten
(49.0970°N, 12.7493°E)
Time: 01:47:30
(UTC+00:00)

Cosmos 2056 Rocket - Pass Details

Date: 05 July 2020
Orbit: 741 x 801 km, 74.0° (Epoch: 04 August)

Event Time Altitude Azimuth Distance (km) Brightness Sun altitude
Rises 21:16:02 0° 340° (NNW) 3,301 8.7 -13.6°
Reaches altitude 10° 21:18:35 10° 348° (NNW) 2,374 7.3 -13.8°
Maximum altitude 21:23:41 40° 58° (ENE) 1,162 4.5 -14.1°
Enters shadow 21:27:37 16° 122° (ESE) 1,982 5.1 -14.4°
